• In Uzbekistan
  • List of Countries
  • For 7 days
  • Water Temperature
  • Satellite Maps
  • Weather Map
  • Weather Widgets
  • user-avatar
    Login

    Hourly Weather Nasiczne

    Today, 25 April, Wednesday

    Time Temperature Precipitation Wind Pressure Humidity
    00:00 +12°C° 0 mm 1 mps 706 mmHg 84%
    01:00 +11°C° 0 mm 1 mps 706 mmHg 85%
    02:00 +11°C° 0 mm 1 mps 705 mmHg 87%
    03:00 +11°C° 0 mm 1 mps 705 mmHg 89%
    04:00 +11°C° 0 mm 1 mps 705 mmHg 91%
    05:00 +10°C° 0 mm 1 mps 705 mmHg 93%
    06:00 +12°C° 0 mm 2 mps 706 mmHg 89%
    07:00 +13°C° 0 mm 2 mps 706 mmHg 85%
    08:00 +14°C° 0 mm 2 mps 706 mmHg 79%
    09:00 +16°C° 0 mm 3 mps 706 mmHg 75%
    10:00 +17°C° 0 mm 3 mps 706 mmHg 70%
    11:00 +18°C° 0 mm 4 mps 706 mmHg 65%
    12:00 +19°C° 0 mm 4 mps 706 mmHg 61%
    13:00 +20°C° 0 mm 5 mps 705 mmHg 57%
    14:00 +21°C° 0 mm 6 mps 705 mmHg 53%
    15:00 +21°C° 0.1 mm 6 mps 705 mmHg 55%
    16:00 +20°C° 0.1 mm 6 mps 704 mmHg 57%
    17:00 +20°C° 0.1 mm 6 mps 704 mmHg 59%
    18:00 +19°C° 0.3 mm 5 mps 703 mmHg 66%
    19:00 +16°C° 0.3 mm 5 mps 703 mmHg 72%
    20:00 +15°C° 0.3 mm 5 mps 703 mmHg 79%
    21:00 +14°C° 0.5 mm 4 mps 703 mmHg 81%
    22:00 +14°C° 0.5 mm 4 mps 703 mmHg 83%
    23:00 +13°C° 0.5 mm 3 mps 703 mmHg 85%

    Tomorrow, 26 April, Thursday

    Time Temperature Precipitation Wind Pressure Humidity
    00:00 +12°C° 0.3 mm 3 mps 704 mmHg 88%
    01:00 +13°C° 0.3 mm 2 mps 704 mmHg 90%
    02:00 +12°C° 0.3 mm 2 mps 704 mmHg 92%
    03:00 +12°C° 0 mm 1 mps 704 mmHg 92%
    04:00 +11°C° 0 mm 1 mps 704 mmHg 93%
    05:00 +11°C° 0 mm 1 mps 704 mmHg 93%
    06:00 +11°C° 0.1 mm 1 mps 705 mmHg 91%
    07:00 +12°C° 0.1 mm 1 mps 705 mmHg 89%
    08:00 +12°C° 0.1 mm 1 mps 705 mmHg 87%
    09:00 +12°C° 0.1 mm 1 mps 705 mmHg 87%
    10:00 +13°C° 0.1 mm 1 mps 705 mmHg 87%
    11:00 +13°C° 0.1 mm 1 mps 705 mmHg 87%
    12:00 +13°C° 0.2 mm 1 mps 705 mmHg 85%
    13:00 +13°C° 0.2 mm 1 mps 705 mmHg 84%
    14:00 +14°C° 0.2 mm 1 mps 705 mmHg 82%
    15:00 +14°C° 0.3 mm 1 mps 705 mmHg 83%
    16:00 +13°C° 0.3 mm 1 mps 705 mmHg 84%
    17:00 +13°C° 0.3 mm 1 mps 705 mmHg 85%
    18:00 +12°C° 0.1 mm 1 mps 705 mmHg 87%
    19:00 +12°C° 0.1 mm 1 mps 705 mmHg 89%
    20:00 +11°C° 0.1 mm 1 mps 706 mmHg 91%
    21:00 +10°C° 0 mm 1 mps 706 mmHg 90%
    22:00 +10°C° 0 mm 1 mps 706 mmHg 89%
    23:00 +8°C° 0 mm 2 mps 706 mmHg 88%

    Day after tomorrow, 27 April, Friday

    Time Temperature Precipitation Wind Pressure Humidity
    00:00 +8°C° 0 mm 2 mps 707 mmHg 88%
    01:00 +7°C° 0 mm 2 mps 707 mmHg 88%
    02:00 +6°C° 0 mm 2 mps 707 mmHg 88%
    03:00 +5°C° 0 mm 2 mps 707 mmHg 89%
    04:00 +6°C° 0 mm 1 mps 707 mmHg 90%
    05:00 +5°C° 0 mm 1 mps 707 mmHg 91%
    06:00 +6°C° 0 mm 1 mps 708 mmHg 85%
    07:00 +6°C° 0 mm 2 mps 708 mmHg 79%
    08:00 +8°C° 0 mm 2 mps 709 mmHg 73%
    09:00 +9°C° 0 mm 2 mps 709 mmHg 64%
    10:00 +12°C° 0 mm 1 mps 709 mmHg 55%
    11:00 +14°C° 0 mm 1 mps 710 mmHg 46%
    12:00 +15°C° 0 mm 1 mps 710 mmHg 43%
    13:00 +16°C° 0 mm 1 mps 710 mmHg 40%
    14:00 +18°C° 0 mm 1 mps 709 mmHg 37%
    15:00 +16°C° 0 mm 1 mps 709 mmHg 39%
    16:00 +16°C° 0 mm 1 mps 709 mmHg 41%
    17:00 +16°C° 0 mm 1 mps 708 mmHg 42%
    18:00 +13°C° 0 mm 1 mps 708 mmHg 51%
    19:00 +11°C° 0 mm 1 mps 708 mmHg 59%
    20:00 +9°C° 0 mm 1 mps 708 mmHg 68%
    21:00 +8°C° 0 mm 1 mps 708 mmHg 70%
    22:00 +8°C° 0 mm 1 mps 708 mmHg 72%
    23:00 +6°C° 0 mm 2 mps 708 mmHg 75%

    28 April, Saturday

    Time Temperature Precipitation Wind Pressure Humidity
    00:00 +6°C° 0 mm 2 mps 708 mmHg 74%
    01:00 +6°C° 0 mm 2 mps 707 mmHg 73%
    02:00 +6°C° 0 mm 2 mps 707 mmHg 72%
    03:00 +6°C° 0 mm 2 mps 707 mmHg 71%
    04:00 +6°C° 0 mm 2 mps 707 mmHg 69%
    05:00 +6°C° 0 mm 2 mps 707 mmHg 67%
    06:00 +8°C° 0 mm 2 mps 707 mmHg 64%
    07:00 +10°C° 0 mm 2 mps 707 mmHg 61%
    08:00 +13°C° 0 mm 2 mps 708 mmHg 58%
    09:00 +15°C° 0 mm 2 mps 708 mmHg 54%
    10:00 +17°C° 0 mm 3 mps 708 mmHg 51%
    11:00 +19°C° 0 mm 4 mps 708 mmHg 48%
    12:00 +20°C° 0 mm 4 mps 708 mmHg 48%
    13:00 +20°C° 0 mm 4 mps 708 mmHg 48%
    14:00 +21°C° 0 mm 4 mps 708 mmHg 47%
    15:00 +21°C° 0 mm 4 mps 708 mmHg 51%
    16:00 +21°C° 0 mm 4 mps 707 mmHg 55%
    17:00 +21°C° 0 mm 4 mps 707 mmHg 58%
    18:00 +19°C° 0 mm 3 mps 707 mmHg 68%
    19:00 +17°C° 0 mm 2 mps 707 mmHg 79%
    20:00 +15°C° 0 mm 2 mps 707 mmHg 89%
    21:00 +14°C° 0 mm 2 mps 707 mmHg 90%
    22:00 +14°C° 0 mm 2 mps 707 mmHg 92%
    23:00 +13°C° 0 mm 1 mps 707 mmHg 94%

    29 April, Sunday

    Time Temperature Precipitation Wind Pressure Humidity
    00:00 +13°C° 0.1 mm 1 mps 707 mmHg 94%
    01:00 +13°C° 0.1 mm 1 mps 707 mmHg 94%
    02:00 +12°C° 0.1 mm 1 mps 707 mmHg 94%
    03:00 +12°C° 0.2 mm 1 mps 707 mmHg 94%
    04:00 +12°C° 0.2 mm 1 mps 707 mmHg 94%
    05:00 +12°C° 0.2 mm 1 mps 707 mmHg 94%
    06:00 +14°C° 0.1 mm 1 mps 708 mmHg 90%
    07:00 +15°C° 0.1 mm 1 mps 708 mmHg 87%
    08:00 +18°C° 0.1 mm 1 mps 708 mmHg 83%
    09:00 +19°C° 0.5 mm 1 mps 708 mmHg 77%
    10:00 +20°C° 0.5 mm 1 mps 708 mmHg 71%
    11:00 +21°C° 0.5 mm 2 mps 709 mmHg 65%
    12:00 +23°C° 0.6 mm 2 mps 708 mmHg 62%
    13:00 +24°C° 0.6 mm 2 mps 708 mmHg 58%
    14:00 +24°C° 0.6 mm 1 mps 708 mmHg 55%
    15:00 +24°C° 0.2 mm 1 mps 707 mmHg 56%
    16:00 +24°C° 0.2 mm 2 mps 707 mmHg 57%
    17:00 +24°C° 0.2 mm 2 mps 707 mmHg 59%
    18:00 +21°C° 0.4 mm 1 mps 706 mmHg 68%
    19:00 +19°C° 0.4 mm 1 mps 706 mmHg 77%
    20:00 +16°C° 0.4 mm 1 mps 706 mmHg 85%
    21:00 +15°C° 0 mm 1 mps 706 mmHg 86%
    22:00 +15°C° 0 mm 1 mps 706 mmHg 87%
    23:00 +14°C° 0 mm 1 mps 705 mmHg 87%

    30 April, Monday

    Time Temperature Precipitation Wind Pressure Humidity
    00:00 +14°C° 0 mm 1 mps 705 mmHg 86%
    01:00 +13°C° 0 mm 1 mps 705 mmHg 85%
    02:00 +13°C° 0 mm 1 mps 705 mmHg 84%
    03:00 +13°C° 0 mm 1 mps 704 mmHg 84%
    04:00 +12°C° 0 mm 1 mps 704 mmHg 83%
    05:00 +12°C° 0 mm 1 mps 704 mmHg 82%
    06:00 +14°C° 0 mm 1 mps 705 mmHg 78%
    07:00 +15°C° 0 mm 1 mps 705 mmHg 73%
    08:00 +18°C° 0 mm 1 mps 705 mmHg 69%
    09:00 +19°C° 0 mm 2 mps 705 mmHg 59%
    10:00 +21°C° 0 mm 2 mps 705 mmHg 50%
    11:00 +24°C° 0 mm 2 mps 705 mmHg 41%
    12:00 +24°C° 0 mm 2 mps 705 mmHg 40%
    13:00 +25°C° 0 mm 3 mps 705 mmHg 38%
    14:00 +25°C° 0 mm 3 mps 705 mmHg 36%
    15:00 +25°C° 0 mm 3 mps 704 mmHg 39%
    16:00 +25°C° 0 mm 2 mps 704 mmHg 43%
    17:00 +24°C° 0 mm 2 mps 704 mmHg 46%
    18:00 +21°C° 0 mm 2 mps 703 mmHg 54%
    19:00 +18°C° 0 mm 2 mps 703 mmHg 63%
    20:00 +16°C° 0 mm 1 mps 703 mmHg 71%
    21:00 +15°C° 0 mm 1 mps 703 mmHg 70%
    22:00 +15°C° 0 mm 1 mps 703 mmHg 69%
    23:00 +14°C° 0 mm 1 mps 702 mmHg 68%
    Show more